| time (UTC) | temp C | wind direction | speed KPH | gust KPH | rain 1hr cm | rain 24hr cm | rain mn cm | humidity % | barometer mb |
| 20260903072217 | 17 | 248 | 3.2 | 6.4 | 0.05 | 0.05 | 0.05 | 88 | 1016.5 |
| 20260903071217 | 16 | 225 | 3.2 | 4.8 | 0.03 | 0.03 | 0.03 | 90 | 1016.7 |
| 20260903070237 | 16 | 180 | 3.2 | 6.4 | 0.03 | 0.03 | 0.03 | 91 | 1016.7 |
| 20260903065217 | 16 | 180 | 4.8 | 9.7 | 0.03 | 0.03 | 0.03 | 92 | 1016.8 |
| 20260903064217 | 16 | 225 | 8.0 | 11.3 | 0.03 | 0.03 | 0.03 | 92 | 1017.2 |
| 20260903063217 | 16 | 225 | 8.0 | 9.7 | 0.00 | 0.00 | 0.00 | 92 | 1017.3 |
| 20260903062217 | 16 | 158 | 6.4 | 9.7 | 0.00 | 0.00 | 0.00 | 91 | 1016.8 |
| 20260903061217 | 16 | 248 | 6.4 | 11.3 | 0.00 | 0.00 | 0.00 | 90 | 1017.2 |
| 20260903060217 | 16 | 225 | 12.9 | 20.9 | 0.00 | 0.00 | 0.00 | 86 | 1017.2 |
| 20260903055217 | 16 | 225 | 11.3 | 16.1 | 0.00 | 0.00 | 0.00 | 85 | 1017.3 |
| 20260903054217 | 16 | 158 | 4.8 | 8.0 | 0.00 | 0.00 | 0.00 | 85 | 1017.0 |
| 20260903053217 | 16 | 225 | 9.7 | 12.9 | 0.00 | 0.00 | 0.00 | 85 | 1017.0 |
| 20260903052217 | 16 | 203 | 6.4 | 11.3 | 0.00 | 0.00 | 0.00 | 84 | 1017.1 |
| 20260903051217 | 17 | 225 | 4.8 | 9.7 | 0.00 | 0.00 | 0.00 | 84 | 1017.3 |
| 20260903050237 | 17 | 225 | 6.4 | 11.3 | 0.00 | 0.00 | 0.00 | 84 | 1017.4 |
| 20260903045217 | 17 | 225 | 8.0 | 14.5 | 0.00 | 0.00 | 0.00 | 84 | 1017.4 |
| 20260903044217 | 16 | 225 | 6.4 | 8.0 | 0.00 | 0.00 | 0.00 | 86 | 1017.4 |
| 20260903043217 | 16 | 225 | 3.2 | 8.0 | 0.00 | 0.00 | 0.00 | 89 | 1017.7 |
| 20260903042217 | 16 | 225 | 4.8 | 11.3 | 0.00 | 0.00 | 0.00 | 96 | 1017.8 |
| 20260903041217 | 16 | 225 | 4.8 | 6.4 | 0.00 | 0.00 | 0.00 | 97 | 1018.0 |
| 20260903040217 | 15 | 203 | 6.4 | 12.9 | 0.00 | 0.00 | 0.00 | 97 | 1018.1 |
| 20260903035217 | 15 | 225 | 4.8 | 8.0 | 0.00 | 0.00 | 0.00 | 97 | 1018.0 |
| 20260903034217 | 15 | 225 | 3.2 | 8.0 | 0.00 | 0.00 | 0.00 | 97 | 1018.1 |
| 20260903033217 | 15 | 225 | 3.2 | 4.8 | 0.00 | 0.00 | 0.00 | 96 | 1018.0 |
| 20260903032217 | 15 | 0.0 | 1.6 | 0.00 | 0.00 | 0.00 | 96 | 1017.8 | |
| 20260903031217 | 15 | 113 | 1.6 | 3.2 | 0.00 | 0.00 | 0.00 | 95 | 1018.0 |
| 20260903030217 | 16 | 225 | 3.2 | 6.4 | 0.00 | 0.00 | 0.00 | 93 | 1018.4 |
| 20260903025217 | 16 | 225 | 3.2 | 4.8 | 0.00 | 0.00 | 0.00 | 83 | 1018.3 |
| 20260903024217 | 16 | 203 | 3.2 | 8.0 | 0.00 | 0.00 | 0.00 | 83 | 1018.2 |
| 20260903023217 | 16 | 225 | 1.6 | 3.2 | 0.00 | 0.00 | 0.00 | 83 | 1018.3 |
| 20260903022217 | 16 | 158 | 4.8 | 6.4 | 0.00 | 0.00 | 0.00 | 84 | 1018.5 |
| 20260903021217 | 16 | 158 | 1.6 | 4.8 | 0.00 | 0.00 | 0.00 | 84 | 1018.6 |
| 20260903020217 | 16 | 0.0 | 1.6 | 0.00 | 0.00 | 0.00 | 84 | 1018.8 | |
| 20260903015217 | 16 | 158 | 1.6 | 4.8 | 0.00 | 0.00 | 0.00 | 83 | 1018.8 |
| 20260903014217 | 16 | 0.0 | 3.2 | 0.00 | 0.00 | 0.00 | 83 | 1018.9 | |
| 20260903013217 | 16 | 225 | 1.6 | 3.2 | 0.00 | 0.00 | 0.00 | 82 | 1019.0 |
| 20260903012237 | 16 | 225 | 1.6 | 3.2 | 0.00 | 0.00 | 0.00 | 82 | 1019.2 |
| 20260903011217 | 17 | 225 | 1.6 | 3.2 | 0.00 | 0.00 | 0.00 | 81 | 1019.2 |
| 20260903010217 | 17 | 225 | 6.4 | 8.0 | 0.00 | 0.00 | 0.00 | 81 | 1019.2 |
| 20260903005217 | 17 | 225 | 4.8 | 9.7 | 0.00 | 0.00 | 0.00 | 80 | 1019.3 |
| 20260903004217 | 17 | 225 | 4.8 | 8.0 | 0.00 | 0.00 | 0.00 | 80 | 1019.4 |
| 20260903003217 | 17 | 225 | 6.4 | 9.7 | 0.00 | 0.00 | 0.00 | 81 | 1019.4 |
| 20260903002237 | 17 | 225 | 4.8 | 8.0 | 0.00 | 0.00 | 0.00 | 81 | 1019.4 |
| 20260903001217 | 17 | 225 | 3.2 | 4.8 | 0.00 | 0.00 | 0.00 | 81 | 1019.5 |
| 20260903000218 | 17 | 225 | 3.2 | 4.8 | 0.00 | 0.00 | 0.00 | 81 | 1019.5 |
| 20260902235217 | 17 | 203 | 3.2 | 6.4 | 0.00 | 0.00 | 0.00 | 81 | 1019.6 |
| 20260902234217 | 17 | 203 | 1.6 | 1.6 | 0.00 | 0.00 | 0.00 | 81 | 1019.7 |
| 20260902233217 | 17 | 270 | 3.2 | 4.8 | 0.00 | 0.00 | 0.00 | 80 | 1019.8 |
| 20260902232237 | 17 | 0.0 | 1.6 | 0.00 | 0.00 | 0.00 | 80 | 1019.8 | |
| 20260902231217 | 17 | 0.0 | 1.6 | 0.00 | 0.00 | 0.00 | 80 | 1019.9 | |
| 20260902230217 | 17 | 225 | 3.2 | 4.8 | 0.00 | 0.00 | 0.00 | 80 | 1019.8 |
| 20260902225217 | 17 | 0.0 | 1.6 | 0.00 | 0.00 | 0.00 | 81 | 1019.9 | |
| 20260902224217 | 17 | 0.0 | 1.6 | 0.00 | 0.00 | 0.00 | 81 | 1020.1 | |
| 20260902223217 | 17 | 0.0 | 4.8 | 0.00 | 0.00 | 0.00 | 81 | 1020.1 | |
| 20260902222217 | 17 | 270 | 1.6 | 3.2 | 0.00 | 0.00 | 0.00 | 81 | 1020.2 |
| 20260902221217 | 17 | 225 | 3.2 | 4.8 | 0.00 | 0.00 | 0.00 | 81 | 1020.2 |
| 20260902220217 | 17 | 248 | 3.2 | 4.8 | 0.00 | 0.00 | 0.00 | 80 | 1020.2 |
| 20260902215215 | 17 | 248 | 1.6 | 1.6 | 0.00 | 0.00 | 0.00 | 80 | 1020.2 |
| 20260902214216 | 17 | 0.0 | 1.6 | 0.00 | 0.00 | 0.00 | 80 | 1020.2 | |
| 20260902213216 | 17 | 248 | 3.2 | 6.4 | 0.00 | 0.00 | 0.00 | 80 | 1020.2 |
| 20260902212216 | 17 | 0.0 | 1.6 | 0.00 | 0.00 | 0.00 | 79 | 1020.2 | |
| 20260902211216 | 17 | 293 | 1.6 | 3.2 | 0.00 | 0.00 | 0.00 | 79 | 1020.1 |
| 20260902210255 | 17 | 225 | 4.8 | 9.7 | 0.00 | 0.00 | 0.00 | 78 | 1020.0 |
| 20260902205236 | 17 | 270 | 6.4 | 9.7 | 0.00 | 0.00 | 0.00 | 78 | 1020.1 |
| 20260902204236 | 18 | 248 | 3.2 | 6.4 | 0.00 | 0.00 | 0.00 | 77 | 1020.1 |
| 20260902203215 | 18 | 293 | 6.4 | 9.7 | 0.00 | 0.00 | 0.00 | 77 | 1020.1 |
| 20260902202256 | 18 | 293 | 3.2 | 6.4 | 0.00 | 0.00 | 0.00 | 77 | 1020.2 |
| 20260902201236 | 18 | 270 | 1.6 | 3.2 | 0.00 | 0.00 | 0.00 | 76 | 1020.3 |
| 20260902200215 | 18 | 270 | 1.6 | 3.2 | 0.00 | 0.00 | 0.00 | 76 | 1020.2 |
| 20260902195215 | 18 | 0.0 | 1.6 | 0.00 | 0.00 | 0.00 | 76 | 1020.3 | |
| 20260902194215 | 18 | 270 | 1.6 | 4.8 | 0.00 | 0.00 | 0.00 | 75 | 1020.3 |
| 20260902193215 | 18 | 248 | 1.6 | 3.2 | 0.00 | 0.00 | 0.00 | 75 | 1020.3 |
| 20260902192216 | 18 | 270 | 1.6 | 3.2 | 0.00 | 0.00 | 0.00 | 74 | 1020.1 |
| 20260902191215 | 18 | 270 | 1.6 | 3.2 | 0.00 | 0.00 | 0.00 | 73 | 1020.0 |
| 20260902190216 | 19 | 0.0 | 0.0 | 0.00 | 0.00 | 0.00 | 73 | 1019.9 | |
| 20260902185215 | 19 | 0.0 | 0.0 | 0.00 | 0.00 | 0.00 | 72 | 1020.0 | |
| 20260902184215 | 19 | 270 | 1.6 | 3.2 | 0.00 | 0.00 | 0.00 | 72 | 1020.0 |
| 20260902183216 | 19 | 270 | 4.8 | 9.7 | 0.00 | 0.00 | 0.00 | 71 | 1020.0 |
| 20260902182216 | 20 | 315 | 3.2 | 6.4 | 0.00 | 0.00 | 0.00 | 69 | 1019.9 |
| 20260902181216 | 20 | 293 | 3.2 | 4.8 | 0.00 | 0.00 | 0.00 | 65 | 1019.7 |
| 20260902180216 | 20 | 293 | 8.0 | 12.9 | 0.00 | 0.00 | 0.00 | 63 | 1019.4 |
| 20260902175236 | 20 | 225 | 1.6 | 1.6 | 0.00 | 0.00 | 0.00 | 63 | 1019.3 |
| 20260902174216 | 20 | 270 | 3.2 | 6.4 | 0.00 | 0.00 | 0.00 | 62 | 1019.2 |
| 20260902173216 | 20 | 270 | 3.2 | 4.8 | 0.00 | 0.00 | 0.00 | 62 | 1019.2 |
| 20260902172215 | 20 | 270 | 3.2 | 6.4 | 0.00 | 0.00 | 0.00 | 61 | 1019.2 |
| 20260902171216 | 21 | 248 | 3.2 | 4.8 | 0.00 | 0.00 | 0.00 | 60 | 1019.2 |
| 20260902170216 | 21 | 248 | 4.8 | 8.0 | 0.00 | 0.00 | 0.00 | 59 | 1019.2 |
| 20260902165216 | 21 | 270 | 1.6 | 3.2 | 0.00 | 0.00 | 0.00 | 58 | 1019.2 |
| 20260902164216 | 21 | 225 | 3.2 | 4.8 | 0.00 | 0.00 | 0.00 | 57 | 1019.2 |
| 20260902163236 | 21 | 270 | 3.2 | 4.8 | 0.00 | 0.00 | 0.00 | 56 | 1019.2 |
| 20260902162216 | 22 | 225 | 4.8 | 6.4 | 0.00 | 0.00 | 0.00 | 54 | 1019.2 |
| 20260902161215 | 22 | 180 | 6.4 | 12.9 | 0.00 | 0.00 | 0.00 | 54 | 1019.2 |
| 20260902160215 | 22 | 248 | 6.4 | 8.0 | 0.00 | 0.00 | 0.00 | 53 | 1019.2 |
| 20260902155216 | 22 | 293 | 8.0 | 12.9 | 0.00 | 0.00 | 0.00 | 54 | 1019.2 |
| 20260902154215 | 22 | 270 | 6.4 | 16.1 | 0.00 | 0.00 | 0.00 | 54 | 1019.3 |
| 20260902153215 | 22 | 270 | 8.0 | 14.5 | 0.00 | 0.00 | 0.00 | 53 | 1019.3 |
| 20260902152215 | 22 | 248 | 6.4 | 11.3 | 0.00 | 0.00 | 0.00 | 53 | 1019.4 |
| 20260902151236 | 22 | 270 | 4.8 | 8.0 | 0.00 | 0.00 | 0.00 | 53 | 1019.4 |
| 20260902150216 | 22 | 270 | 3.2 | 8.0 | 0.00 | 0.00 | 0.00 | 54 | 1019.5 |
| 20260902145235 | 22 | 270 | 6.4 | 9.7 | 0.00 | 0.00 | 0.00 | 55 | 1019.6 |
| 20260902144216 | 21 | 248 | 6.4 | 9.7 | 0.00 | 0.00 | 0.00 | 56 | 1019.6 |
| 20260902143216 | 21 | 270 | 8.0 | 14.5 | 0.00 | 0.00 | 0.00 | 55 | 1019.7 |
| 20260902142215 | 22 | 293 | 6.4 | 8.0 | 0.00 | 0.00 | 0.00 | 55 | 1019.7 |
| 20260902141215 | 22 | 270 | 11.3 | 16.1 | 0.00 | 0.00 | 0.00 | 55 | 1019.8 |
| 20260902140216 | 22 | 270 | 8.0 | 11.3 | 0.00 | 0.00 | 0.00 | 54 | 1019.8 |
| 20260902135235 | 22 | 270 | 8.0 | 14.5 | 0.00 | 0.00 | 0.00 | 53 | 1019.7 |
| 20260902134236 | 21 | 270 | 1.6 | 1.6 | 0.00 | 0.00 | 0.00 | 56 | 1019.7 |
| 20260902133216 | 21 | 293 | 6.4 | 11.3 | 0.00 | 0.00 | 0.00 | 55 | 1019.8 |
| 20260902132215 | 22 | 248 | 4.8 | 11.3 | 0.00 | 0.00 | 0.00 | 55 | 1019.8 |
| 20260902131235 | 22 | 270 | 6.4 | 11.3 | 0.00 | 0.00 | 0.00 | 53 | 1019.8 |
| 20260902130215 | 22 | 293 | 3.2 | 9.7 | 0.00 | 0.00 | 0.00 | 52 | 1019.8 |
| 20260902125216 | 22 | 293 | 8.0 | 16.1 | 0.00 | 0.00 | 0.00 | 52 | 1019.8 |
| 20260902124255 | 22 | 68 | 8.0 | 9.7 | 0.00 | 0.00 | 0.00 | 54 | 1019.7 |
| 20260902123215 | 22 | 315 | 1.6 | 4.8 | 0.00 | 0.00 | 0.00 | 55 | 1019.8 |
| 20260902122216 | 22 | 293 | 1.6 | 3.2 | 0.00 | 0.00 | 0.00 | 54 | 1020.0 |
| 20260902121215 | 22 | 293 | 8.0 | 16.1 | 0.00 | 0.00 | 0.00 | 54 | 1020.1 |
| 20260902120215 | 22 | 270 | 8.0 | 16.1 | 0.00 | 0.00 | 0.00 | 54 | 1020.2 |
| 20260902115215 | 22 | 270 | 6.4 | 12.9 | 0.00 | 0.00 | 0.00 | 54 | 1020.2 |
| 20260902114236 | 21 | 293 | 4.8 | 12.9 | 0.00 | 0.00 | 0.00 | 55 | 1020.2 |
| 20260902113215 | 21 | 45 | 4.8 | 12.9 | 0.00 | 0.00 | 0.00 | 56 | 1020.3 |
| 20260902112215 | 21 | 270 | 4.8 | 8.0 | 0.00 | 0.00 | 0.00 | 56 | 1020.4 |
| 20260902111255 | 21 | 270 | 9.7 | 14.5 | 0.00 | 0.00 | 0.00 | 56 | 1020.5 |
| 20260902110215 | 21 | 270 | 6.4 | 11.3 | 0.00 | 0.00 | 0.00 | 57 | 1020.5 |
| 20260902105215 | 21 | 270 | 6.4 | 12.9 | 0.00 | 0.00 | 0.00 | 58 | 1020.6 |
| 20260902104236 | 21 | 270 | 4.8 | 6.4 | 0.00 | 0.00 | 0.00 | 60 | 1020.8 |
| 20260902103216 | 20 | 293 | 8.0 | 16.1 | 0.00 | 0.00 | 0.00 | 60 | 1020.8 |
| 20260902102215 | 20 | 270 | 9.7 | 14.5 | 0.00 | 0.00 | 0.00 | 62 | 1020.8 |
| 20260902101215 | 20 | 293 | 6.4 | 8.0 | 0.00 | 0.00 | 0.00 | 64 | 1020.8 |
| 20260902100215 | 19 | 270 | 4.8 | 11.3 | 0.00 | 0.00 | 0.00 | 66 | 1020.9 |
| 20260902095216 | 19 | 270 | 8.0 | 11.3 | 0.00 | 0.00 | 0.00 | 70 | 1020.9 |
| 20260902094215 | 18 | 293 | 8.0 | 9.7 | 0.00 | 0.00 | 0.00 | 74 | 1021.1 |
| 20260902093216 | 18 | 270 | 9.7 | 12.9 | 0.00 | 0.00 | 0.00 | 75 | 1021.0 |
| 20260902092216 | 18 | 270 | 8.0 | 12.9 | 0.00 | 0.00 | 0.00 | 76 | 1021.0 |
| 20260902091215 | 17 | 225 | 6.4 | 11.3 | 0.00 | 0.00 | 0.00 | 78 | 1021.1 |
| 20260902090215 | 17 | 293 | 8.0 | 11.3 | 0.00 | 0.00 | 0.00 | 79 | 1021.0 |
| 20260902085215 | 17 | 270 | 4.8 | 9.7 | 0.00 | 0.00 | 0.00 | 81 | 1021.0 |
| 20260902084215 | 17 | 270 | 4.8 | 11.3 | 0.00 | 0.00 | 0.00 | 84 | 1021.0 |
| 20260902083215 | 16 | 225 | 1.6 | 3.2 | 0.00 | 0.00 | 0.00 | 86 | 1020.9 |
| 20260902082215 | 16 | 270 | 1.6 | 3.2 | 0.00 | 0.00 | 0.00 | 86 | 1020.9 |
| 20260902081215 | 16 | 248 | 3.2 | 4.8 | 0.00 | 0.00 | 0.00 | 88 | 1020.8 |
| 20260902080215 | 16 | 338 | 1.6 | 4.8 | 0.00 | 0.00 | 0.00 | 91 | 1021.0 |
| 20260902075215 | 16 | 113 | 1.6 | 3.2 | 0.00 | 0.00 | 0.00 | 92 | 1020.8 |
| 20260902074217 | 15 | 0.0 | 1.6 | 0.00 | 0.00 | 0.00 | 93 | 1020.7 | |
| 20260902073217 | 15 | 0.0 | 1.6 | 0.00 | 0.00 | 0.00 | 94 | 1020.7 |